AirNav   Pilot Hours Calculator
 
 1484 users online  

KNKX Miramar MCAS (Joe Foss Field) Airport
San Diego, California, USA

GOING TO SAN DIEGO?


FAA INFORMATION EFFECTIVE 10 OCTOBER 2019

Location

FAA Identifier: NKX
Lat/Long: 32-52-06.7043N 117-08-35.4782W
32-52.111738N 117-08.591303W
32.8685290,-117.1431884
(estimated)
Elevation: 477.1 ft. / 145.4 m (surveyed)
Variation: 12E (2015)
From city: 3 miles N of SAN DIEGO, CA
Time zone: UTC -7 (UTC -8 during Standard Time)
Zip code: 92126

Airport Operations

Airport use: Private use. Permission required prior to landing
Activation date: 02/1944
Control tower: yes
ARTCC: LOS ANGELES CENTER
FSS: SAN DIEGO FLIGHT SERVICE STATION
NOTAMs facility: NKX (NOTAM-D service available)
Attendance: MON-THU 1530-0800Z, ALL FRI 1630-0200Z++, ALL SAT CLSD, ALL SUN 2200-0200Z++, ALL HOL CLSD
MON-THU 1500-0730Z DST.
Segmented circle: no
Lights: ACTIVATE-ALSF-1, HIRL, CL AND PAPI RWY 06L-24R-298.925 OR 135.2
Beacon: white-white-green (lighted military airport)
Operates sunset to sunrise.

Airport Communications

ATIS: 352.0
MIRAMAR GROUND: 128.625 307.325 [1530-0800Z++ MON-THU; 1530-0200Z++ FRI; CLSD SAT; 2200-0200Z++SUN. FLD CLSD NATL HOL AND NATL HOL WKENDS.]
MIRAMAR TOWER: 135.2 298.925 340.2 [1530-0800Z++ MON-THU; 1530-0200Z++ FRI; CLSD SAT; 2200-0200Z++SUN. FLD CLSD NATL HOL AND NATL HOL WKENDS.]
SOCAL APPROACH: 132.2
SOCAL DEPARTURE: 119.6 ;WEST 132.2 ;EAST
CLEARANCE DELIVERY: 125.975 254.325
PMSV METRO: 342.4
PTD: 335.625
RADAR: 133.625 266.8X 270.35 307.9X 328.4X 348.75 350.275 373.575 379.125 380.3X
WX ASOS at MYF (3 nm S): 126.9 (858-576-4337)
WX ASOS at SAN (8 nm S): PHONE 619-296-8934
WX AWOS-3P at SEE (9 nm E): 125.45 (619-449-1228)
WX ASOS at RNM (15 nm NE): PHONE 760-789-7699
WX ASOS at CRQ (17 nm NW): PHONE 760-930-0864
WX ASOS at NRS (18 nm S): PHONE 619-437-9890
WX ASOS at SDM (20 nm SE): 132.35 (619-661-8297)
  • FOR CLNC DEL WHEN ATCT CLSD CALL SOCAL APCH (800) 448-3724.

Nearby radio navigation aids

VOR radial/distance  VOR name  Freq  Var
MZBr024/6.6MISSION BAY VORTAC117.8015E
PGYr318/17.6POGGI VORTAC116.4514E
TIJr320/21.9TIJUANA VOR/DME116.5014E
OCNr133/26.3OCEANSIDE VORTAC115.3015E
JLIr225/32.4JULIAN VORTAC114.0015E

Airport Services

Airframe service: NONE
Powerplant service: NONE
Bottled oxygen: NONE
Bulk oxygen: NONE

Runway Information

Runway 6L/24R

Dimensions: 12000 x 200 ft. / 3658 x 61 m
Surface: concrete
Weight bearing capacity: 
PCN 72 /R/B/W/T
Runway edge lights: high intensity
RUNWAY 6L  RUNWAY 24R
Latitude: 32-51.873985N32-52.372448N
Longitude: 117-09.890945W117-07.621707W
Elevation: 425.7 ft.474.9 ft.
Traffic pattern: leftleft
Runway heading: 063 magnetic, 075 true243 magnetic, 255 true
Visual slope indicator: 4-light PAPI on left (3.00 degrees glide path)4-light PAPI on left (3.00 degrees glide path)
Approach lights: OLSALSF1: standard 2,400 foot high intensity approach lighting system with centerline sequenced flashers (category I)
SF, OLS
Centerline lights: yesyes
Touchdown point: yes, no lightsyes, no lights
Instrument approach: LOC/GS

Runway 6R/24L

Dimensions: 8001 x 200 ft. / 2439 x 61 m
Surface: PEM
Weight bearing capacity: 
PCN 65 /R/B/W/T
Runway edge lights: high intensity
RUNWAY 6R  RUNWAY 24L
Latitude: 32-51.928375N32-52.260677N
Longitude: 117-09.100330W117-07.587280W
Elevation: 430.2 ft.477.1 ft.
Traffic pattern: leftleft
Runway heading: 063 magnetic, 075 true243 magnetic, 255 true
Visual slope indicator: 4-light PAPI on left (3.00 degrees glide path)4-light PAPI on left (3.00 degrees glide path)
Approach lights: OLSOLS
Touchdown point: yes, no lightsyes, no lights

Airport Ownership and Management from official FAA records

Ownership: U.S. Navy
Owner: US NAVY
OCEANOGRAPHIC OFC - CODE 3142
WASHINGTON, DC 20373
Manager: COMMANDING OFFICER
MARINE CORPS AIR STATION MIRAMAR
SAN DIEGO, CA 92145

Additional Remarks

E60-24R HOOK E28(B) (2300')
E60-06R HOOK E28(B) (1052')
E60-06L HOOK E28(B) (2490')
E60-24L HOOK E28(B) (2301')
CAUTION: WATER ON THE RUBBER BUILD-UP AREAS OF THE RWY MAY PRODUCE POOR TRACTION AND/OR BA AND STANDING WATER ON RWY MAY PRODUCE HYDROPLANING COND.
NS ABTMT: STRICTLY ENFORCED, MANDATORY PRO AND CRS RULES. ALL TRAN ACFT MUST REVIEW AND SIGN NOISE ABATEMENT FORM WITH FLT PLANNING.
CAUTION: HIGH MID-AIR POTENTIAL, EXER EXTREME VIGILANCE.
CAUTION: ALL ACFT ARR/DEP VFR VIA CORRIDOR RULES TO/FR COASTLINE ARE ADVS TO EXER EXTREME CAUTION TO AVOID HANG GLIDER ACT NEAR TORRY PINES GOLF CRS, NKX R-280/5 DME.
CAUTION: EXTSV GEN AVIATION TFC ALL ALTS, ALL DRCT NEAR AFLD. HIGH VOLUME OF CIV VFR TFC ALONG THE COAST W OF AFLD.
MISC: ORDINANCE, LIVE OR INERT, NOT PERMS TO REMAIN ON RON TRAN ACFT.
SERVICE-LGT: PAPI RRP NOT COINCIDENTAL WITH PAR RY 24L & RY 24R. PAPI UNITS FOR RY 06R/L ARE OPTIMIZED FOR HGT GROUP 2 TYPE ACFT.
A-GEAR: SHORT FLD A-GEAR RWY 24R NML DE-RIGGED.
FUEL: J5
FLUID: SP LHOX LOX.
OIL: O-148-156.
TRAN ALERT: NO AMC FLEET SVC AVBL. ALCE TEAM RQR FOR ALL AMC FLT. LTD TRAN SVC, NO TIE-DOWN, OIL/LABORATORY ANALYSIS OR TRAN MAINT SVC AVBL.
JASU: (A/M47A-4) (NC-10A1) (NC-10C)
TRAN ALERT: NO SHUTTLE SVC AVBL. ALL VIP ACFT CTC AIRFIELD OPS ON PTD 15 MIN PRIOR TO ARR.
RSTD (1 OF 3): PPR FOR ALL TRAN ACFT AND TRANSCOM/JOSAC/NALO ARE REQUIRED TO CONTACT VAL DSN 267-4284, C858 577-4284 (PPR RSTD TO 30 MIN BEFORE/AFTER APPROVED TIME, PPR NOT VALID OUTSIDE OF THIS WINDOW AND MUST BE RE-COORED TO ARR).
RSTD (2 OF 3): FOR STAGING (LCL TRNG FLT) OR HIGH VISIBILITY EVENTS (VIP M7 AND ABOVE, MEDEVAC W/BATTLE PATIENTS, OIF/OEF HOMECOMING, HR/ANGEL FLIGHTS ETC.) ARE REQUIRED TO NOTIFY AIROPS 1HR PRIOR TO ARRIVAL DUE TO 3DMAW CG AND STATION CO COORDINATION.
RSTD (3 OF 3): PLEASE CONTACT THE ODO AT DSN 267-4277/4284, C858-577-4277/4284.
TFC PAT: REDUCED RWY SEPARATION STD IN EFF USN/USMC ACFT. OPR ON PARL RWY 700' APART. MULTI PRACTICE APCH RY 06L/R NOT AUTH. RADAR VECTORS TO FINAL APCH EXP STEEP DESCENT.
AIRFIELD OPRG HRS ARE SUBJECT TO CHANGE; CHECK NOTAMS OR CTC AIRFIELD OPERATIONS TO VERIFY HRS. PILOTS FILING MCAS MIRAMAR AS AN ALTN OR EMERG DIVERT ARE ADVISED TO CALL AIRFIELD OPERATIONS TO VERIFY OPRG HRS.
CLOSED FIELD OPNS (CFO) ARE RSTRD AND RQR PPR.

Instrument Procedures

NOTE: All procedures below are presented as PDF files. If you need a reader for these files, you should download the free Adobe Reader.

NOT FOR NAVIGATION. Please procure official charts for flight.
FAA instrument procedures published for use from 10 October 2019 at 0901Z to 7 November 2019 at 0900Z.

 
IAPs - Instrument Approach Procedures
ILS OR LOC/DME RWY 24R   download (147KB)
RNAV (GPS) RWY 24L   download (157KB)
RNAV (GPS) RWY 24R   download (153KB)
HI-TACAN RWY 24R   download (155KB)
TACAN RWY 24R   download (162KB)
Radar Approach Procedures available   download (76KB)
 
Departure Procedures
LAKEE THREE   2 pages: [1] [2] (161KB)
REDIN FOUR **CHANGED**   download (70KB)
SWOLF NINE **CHANGED**   2 pages: [1] [2] (122KB)
TINNY FOUR **CHANGED**   2 pages: [1] [2] (106KB)
VITKO THREE   2 pages: [1] [2] (190KB)
NOTE: Special Take-Off Minimums/Departure Procedures apply   download (236KB)

Other nearby airports with instrument procedures:

KMYF - Montgomery-Gibbs Executive Airport (3 nm S)
KSAN - San Diego International Airport (8 nm S)
KSEE - Gillespie Field Airport (9 nm E)
KNZY - North Island Naval Air Station (Halsey Field) (11 nm S)
KRNM - Ramona Airport (15 nm NE)
KCRQ - Mc Clellan-Palomar Airport (17 nm NW)
KNRS - Imperial Beach Naval Outlying Field (Ream Field) (18 nm S)
KSDM - Brown Field Municipal Airport (20 nm SE)
 
Loc | Ops | Rwys | IFR | FBO | Links
Com | Nav | Svcs | Stats | Notes
Area around KNKX (Miramar MCAS (Joe Foss Field) Airport)
 
Road maps at: MapQuest Bing Google
 
Aerial photo
WARNING: Photo may not be current or correct
Aerial photo of KNKX (Miramar MCAS (Joe Foss Field) Airport)
Photo courtesy of AirNav, LLC
Photo taken 11-May-2013
looking northeast from 7,000 ft.

Do you have a better or more recent aerial photo of Miramar MCAS (Joe Foss Field) Airport that you would like to share? If so, please send us your photo.

 
Sectional chart

 
Airport diagram
Diagram of KNKX (Miramar MCAS (Joe Foss Field) Airport)
Download PDF
of official airport diagram from the FAA

 
Airport distance calculator
Flying to Miramar MCAS (Joe Foss Field) Airport? Find the distance to fly.

From to KNKX

Sunrise and sunset
Times for 21-Oct-2019
 Local
(UTC-7)
 Zulu
(UTC)
Morning civil twilight06:3313:33
Sunrise06:5813:58
Sunset18:0801:08
Evening civil twilight18:3301:33

Current date and time
Zulu (UTC)  21-Oct-2019 18:16:08
Local (UTC-7)  21-Oct-2019 11:16:08
 
METAR
KNKX 211755Z 17005KT 10SM CLR 33/01 A3000 RMK AO2 SLP152 6//// T03280011 10328 20167 $
KMYF 
3nm S 
211753Z 00000KT 10SM CLR 31/01 A3001 RMK AO2 SLP156 T03060011 10306 20139 50010
KSAN 
8nm S 
211751Z 00000KT 10SM FEW012 28/09 A3001 RMK AO2 SLP161 T02830094 10283 20144 50008
KSEE 
9nm E 
211745Z 00000KT 10SM SKC 26/04 A3001
KNZY 
11nm S 
211752Z 00000KT 10SM CLR 29/04 A2999 RMK AO2 SLP155 T02940039 10294 20139 50009
KRNM 
15nm NE 
211753Z 06010KT 10SM CLR 31/M02 A3005 RMK AO2 SLP160 T03111022 10317 20089 51008
KCRQ 
17nm NW 
211753Z VRB03KT 10SM CLR 31/M01 A2999 RMK AO2 SLP153 T03061006 10306 20167 50009
KNRS 
18nm S 
211756Z 34006KT 10SM CLR 27/05 A2999 RMK AO2 SLP156 T02720050 50007 $
KSDM 
19nm SE 
211753Z VRB03KT 10SM CLR 31/01 A3000 RMK AO2 SLP153 T03110006 10311 20128 50008
TAF
KNKX 2115/2215 VRB05KT 9999 SKC QNH2995INS BECMG 2117/2119 31008KT 9999 SKC QNH2993INS BECMG 2203/2205 07007KT 9999 SKC QNH2999INS T33/2120Z T16/2212Z
KSAN 
8nm S 
211721Z 2118/2224 VRB04KT P6SM SKC FM211900 30010KT P6SM SKC FM220100 VRB04KT P6SM SKC FM221900 30010KT P6SM SKC
KNZY 
11nm S 
2115/2215 VRB05KT 9999 SKC QNH2991INS FM212000 30011KT 9999 SKC QNH2987INS FM220200 VRB06KT 9999 SKC QNH2992INS T27/2121Z T17/2212Z FS30022
KCRQ 
17nm NW 
211721Z 2118/2218 VRB04KT P6SM SKC FM211900 26007KT P6SM SKC FM220000 VRB04KT P6SM SKC
NOTAMs
Click for the latest NOTAMs
NOTAMs are issued by the DoD/FAA and will open in a separate window not controlled by AirNav.

 

 
 

Would you like to see your business listed on this page?

 If your business provides an interesting product or service to pilots, flight crews, aircraft, or users of the Miramar MCAS (Joe Foss Field) Airport, you should consider listing it here.  To start the listing process, click on the button below
 
Add a business
 

Other Pages about Miramar MCAS (Joe Foss Field) Airport

www.miramar.usmc.mil
 
Update a link
 
Copyright © AirNav, LLC. All rights reserved. Privacy Policy  Contact